Location: Unspecified
(35.6961°N, 0.0000°E)
Time: 03:43:10
(UTC+00:00)

Altair - Pass Details

Date: 21 May 2019
Orbit: 1501 x 1683 km, 47.2° (Epoch: 23 June)

Event Time Altitude Azimuth Distance (km) Brightness Sun altitude
Rises 10:21:52 0° 303° (WNW) 4,916 9.9 64.1°
Reaches altitude 10° 10:25:04 10° 304° (NW) 3,911 9.5 64.6°
Maximum altitude 10:35:07 85° 34° (NE) 1,625 9.2 66.3°
Drops below altitude 10° 10:44:46 10° 124° (SE) 3,761 10.1 67.9°
Sets 10:47:46 0° 125° (SE) 4,720 10.4 68.3°
